User: anonymous   Login
Location: Oshawa
(43.9000°N, 78.8670°W)
Time: 02:57:09
(UTC-05:00)
Language:

Cosmos 839 Rocket - Orbit

View from above orbital plane
View from above orbital plane
View from above satellite
View from above satellite

Ground track
Ground track

The orbit data is extracted from the following two-line orbital elements,

1 09013U 76067B   14350.12995370 -.00000032  00000-0  76678-4 0  5673
2 09013 065.8674 341.1298 0706647 070.8978 355.9809 12.35310900733745
Epoch (UTC): 16 December 2014 03:07:08
Eccentricity: 0.0706647
inclination: 65.8674°
perigee height: 968 km
apogee height: 2085 km
right ascension of ascending node: 341.1298°
argument of perigee: 70.8978°
revolutions per day: 12.35310900
mean anomaly at epoch: 355.9809°
orbit number at epoch: 73374

The dashed part of the orbit path shows where the satellite is in the earth's shadow,  

DLR